Tracking 28790 objects as of 18-Apr-2024
HD Live streaming from Space Station
objects crossing your sky now

DMSP 5D-2 F13 DEB

Track DMSP 5D-2 F13 DEB now!
10-day predictions


NORAD ID: 42328
Int'l Code: 1995-015JW
Perigee: 744.6 km
Apogee: 790.3 km
Inclination: 98.8 °
Period: 100.0 minutes
Semi major axis: 7138 km
RCS: Unknown
Launch date: March 24, 1995
Source: United States (US)
Launch site: AIR FORCE WESTERN TEST RANGE (AFWTR)

Note: This is SATELLITE DEBRIS
Your satellite tracking list
Your tracking list is empty




NASA's NSSDC Master Catalog

Two Line Element Set (TLE):
1 42328U 95015JW  24107.25879999  .00048767  00000-0  15464-1 0  9994
2 42328  98.8342 109.1559 0032027   3.6231 356.5182 14.39457649438944
Source of the keplerian elements: AFSPC